Regional Weather Roundup
Issued by NWS Newport/Morehead, NC

Current Version | Previous Version | Text Only | Print | Product List | Glossary On
Versions: 1 2 3 4 5 6 7 8 9 10 11 12 13 14 15 16 17 18 19 20 21 22 23 24 25 26 27 28 29 30 31 32 33 34 35 36 37 38 39 40 41 42 43 44 45 46 47 48 49 50
000
ASUS42 KMHX 071425
RWRMHX
WEATHER ROUNDUP FOR EASTERN NORTH CAROLINA
NATIONAL WEATHER SERVICE NEWPORT/MOREHEAD CITY NC
1000 AM EDT TUE JUL 07 2015

NOTE: "FAIR" INDICATES FEW OR NO CLOUDS BELOW 12,000 FEET
WITH NO SIGNIFICANT WEATHER AND/OR OBSTRUCTIONS TO VISIBILITY

NCZ015>017-031-032-045>047-102-103-071500-
NORTH COAST

CITY           SKY/WX    TMP DP  RH WIND       PRES   REMARKS
EDENTON          N/A     82  73  76 SW6       30.13S
ELIZABETH CITY SUNNY     83  75  77 SW9       30.13S
KITTY HAWK     SUNNY     85  74  69 SW5       30.12F
MANTEO         SUNNY     83  71  66 SW9       30.14S

$$

NCZ045>047-081-094-103-104-071500-
CENTRAL COAST

CITY           SKY/WX    TMP DP  RH WIND       PRES   REMARKS
FRISCO         SUNNY     80  75  84 SW8       30.16R
SWANQUARTER      N/A     84 N/A N/A SW10      30.12S

$$

NCZ095-097-098-100-101-071500-
SOUTHERN COAST

CITY           SKY/WX    TMP DP  RH WIND       PRES   REMARKS
BEAUFORT       MOSUNNY   83  74  74 W12       30.16S
CEDAR ISLAND     N/A     84 N/A N/A W9        30.18S
JACKSONVILLE   SUNNY     83  72  69 SW8       30.14F
PINEY ISLAND   SUNNY    N/A N/A N/A SW12      30.15S
WILMINGTON     SUNNY     84  73  69 SW6       30.15F


$$

NCZ011>013-027>030-043-044-078>080-089-090>093-098-071500-
COASTAL PLAIN

CITY           SKY/WX    TMP DP  RH WIND       PRES   REMARKS
AHOSKIE        MOSUNNY   80  73  79 CALM      30.13S
CLINTON        MOSUNNY   81  74  79 SW5       30.15S
ELIZABETHTOWN  SUNNY     83  72  69 SW5       30.15S
GOLDSBORO      SUNNY     83  74  74 W8        30.12S
GREENVILLE     SUNNY     82  73  74 W6        30.15S
HAVELOCK       PTSUNNY   85  72  65 SW10      30.16S
KENANSVILLE    SUNNY     82  72  69 SW6       30.16S
KINSTON        SUNNY     84  73  70 SW7       30.15S
NEW BERN       SUNNY     84  73  69 SW9       30.16S
RICHLANDS      MOSUNNY   86  72  62 S10       30.15S
ROCKY MOUNT    MOSUNNY   83  73  72 SW7       30.13S
WASHINGTON     SUNNY     83  74  73 SW6       30.14S
WHITEVILLE     SUNNY     82  73  74 S5        30.15F

$$

AMZ130-135-150-152-154-156-158-170-250-252-270-ANZ085-086-088-633-658-670-071500-
MARINE OBSERVATIONS

STATION/POSITION TIME  TEMP    WIND        PRES    WAVE   SWELL
                       AIR SEA DIR/SP/G            HT/PER HT/PER
                 (UTC) (F)     (DEG/KT/KT) (MB)    (FT/S) (FT/S)
CHESAPEAKE LIGHT 1400   78     210/ 10/ 11 1020.2
64 E VA BEACH    1350   78 76  210/ 10/ 14 1019.8    3/ 8   3/ 8
DUCK             1400   80 70  210/ 11/ 13   N/A
2 E DUCK         1311      76                N/A     2/ 8   2/14
OREGON INLET     1400   80 81  190/ 12/ 13 1020.6
13E OREGON INLT  1400      78                N/A     3/14   2/14
HATTERAS CG      1400   81 80  210/  7/ 11 1020.9
DIAMOND BUOY     1350   81 83  230/ 10/ 12 1021.0    3/ 8   2/ 8
CAPE LOOKOUT     1400   81     240/  9/ 12 1021.0
BEAUFORT LAB     1400   82 81  240/  6/ 10 1020.5
30 SE NEW RVR IN NOT AVBL
27 SE WRIGHTSVLE 1400      80  250/ 10/ 12   N/A
5 SE WRIGHTSVLE  1308   80 78  220/  4/  8 1021.4
225 S CAPE HAT   1350   82 81  230/  6/ 10 1023.5    4/ 9   3/ 9
41 SE CHARLESTON 1350   81 83  210/ 10/ 12 1021.2    3/ 8   2/ 8

$$



USA.gov is the U.S. government's official web portal to all federal, state and local government web resources and services.